Nenana, AK

5:36 PM AKDT on April 28, 2017 (GMT -0800)
Nenana Municipal

Weather History for PANN - August, 2013

Change the Weather History Date:

Wednesday, August 14, 2013

  Actual Average Record
Temperature  
Mean Temperature 64 °F -  
Max Temperature 75 °F 66 °F 87 °F (2016)
Min Temperature 54 °F 42 °F 42 °F (2015)
Growing Degree Days 14 (Base 50)    
Moisture  
Dew Point 52 °F    
Average Humidity 73    
Maximum Humidity 95    
Minimum Humidity 51    
Precipitation  
Precipitation 0.00 in - - ()
Sea Level Pressure  
Sea Level Pressure 29.86 in    
Wind  
Wind Speed 3 mph (SW)    
Max Wind Speed 8 mph    
Max Gust Speed 16 mph    
Visibility 6 miles    
Events      
Averages and records for this station are not official NWS values.
T = Trace of Precipitation, MM = Missing Value Source: NWS Daily Summary

Daily Weather History Graph

Daily Weather History Graph

Search for Another Location

Airport or City:

Trip Planner

Search our weather history database for the weather conditions in past years. The results will help you decide how hot, cold, wet, or windy it might be!

Date:

Astronomy

Aug. 14, 2013 Rise Set
Actual Time 5:42 AM AKDT 10:16 PM AKDT
Civil Twilight 4:34 AM AKDT 11:23 PM AKDT
Nautical Twilight 2:33 AM AKDT 1:28 AM AKDT
Astronomical Twilight Sun does not set Sun does not set
Moon 5:16 PM AKDT (8/14) 11:22 PM AKDT (8/14)
Length of Visible Light 18h 48m
Length of Day
16h 33m
First Quarter, 54% of the Moon is Illuminated
Aug 14
First Quarter
Aug 20
Full
Aug 28
Last Quarter
Sep 5
New
Sep 12
First Quarter

Hourly Weather History & Observations

Time (AKDT) Temp. Dew Point Humidity Pressure Visibility Wind Dir Wind Speed Gust Speed Precip Events Conditions
12:53 AM 57.9 °F 55.0 °F 90% 29.82 in 9.0 mi Calm Calm - N/A   Partly Cloudy
1:53 AM 55.9 °F 54.0 °F 93% 29.82 in 7.0 mi Calm Calm - N/A   Clear
2:53 AM 52.0 °F 50.0 °F 93% 29.81 in 8.0 mi Calm Calm - N/A   Clear
3:53 AM 54.0 °F 51.1 °F 90% 29.81 in 9.0 mi Calm Calm - N/A   Overcast
4:49 AM 57.2 °F 53.6 °F 88% 29.81 in 3.0 mi Calm Calm - N/A   Haze
4:53 AM 57.9 °F 53.1 °F 84% 29.83 in 3.0 mi Variable 3.5 mph - N/A   Haze
5:35 AM 57.2 °F 53.6 °F 88% 29.83 in 2.0 mi Calm Calm - N/A   Haze
5:40 AM 57.2 °F 53.6 °F 88% 29.83 in 1.8 mi Calm Calm - N/A   Haze
5:53 AM 59.0 °F 53.1 °F 81% 29.85 in 1.5 mi Calm Calm - N/A   Haze
6:40 AM 60.8 °F 51.8 °F 72% 29.85 in 2.0 mi WSW 6.9 mph - N/A   Haze
6:53 AM 60.1 °F 52.0 °F 75% 29.87 in 2.5 mi Variable 6.9 mph 16.1 mph N/A   Haze
7:25 AM 60.8 °F 51.8 °F 72% 29.87 in 3.0 mi West 8.1 mph - N/A   Haze
7:53 AM 59.0 °F 51.1 °F 75% 29.89 in 2.5 mi Variable 6.9 mph - N/A   Haze
8:12 AM 59.0 °F 51.8 °F 77% 29.88 in 1.8 mi Variable 6.9 mph - N/A   Haze
8:30 AM 59.0 °F 51.8 °F 77% 29.89 in 2.0 mi Variable 6.9 mph - N/A   Haze
8:48 AM 59.0 °F 50.0 °F 72% 29.89 in 3.0 mi WSW 8.1 mph 16.1 mph N/A   Haze
8:53 AM 59.0 °F 50.0 °F 72% 29.91 in 3.0 mi Variable 4.6 mph 16.1 mph N/A   Haze
9:53 AM 60.1 °F 50.0 °F 69% 29.91 in 6.0 mi Variable 6.9 mph - N/A   Haze
10:53 AM 60.1 °F 50.0 °F 69% 29.91 in 10.0 mi Variable 5.8 mph - N/A   Clear
11:53 AM 61.0 °F 50.0 °F 67% 29.92 in 10.0 mi Variable 4.6 mph - N/A   Partly Cloudy
12:53 PM 63.0 °F 51.1 °F 65% 29.92 in 10.0 mi Variable 6.9 mph - N/A   Clear
1:53 PM 62.1 °F 51.1 °F 67% 29.92 in 10.0 mi Variable 6.9 mph - N/A   Clear
2:53 PM 63.0 °F 50.0 °F 63% 29.91 in 10.0 mi Variable 5.8 mph - N/A   Clear
3:53 PM 64.0 °F 50.0 °F 60% 29.89 in 10.0 mi Variable 6.9 mph - N/A   Partly Cloudy
4:53 PM 64.9 °F 50.0 °F 58% 29.88 in 10.0 mi WSW 4.6 mph - N/A   Partly Cloudy
5:53 PM 66.0 °F 50.0 °F 56% 29.86 in 10.0 mi Calm Calm - N/A   Partly Cloudy
6:53 PM 66.0 °F 51.1 °F 59% 29.85 in 10.0 mi Variable 4.6 mph - N/A   Overcast
7:53 PM 66.0 °F 51.1 °F 59% 29.85 in 10.0 mi SW 5.8 mph - N/A   Overcast
8:53 PM 63.0 °F 51.1 °F 65% 29.85 in 7.0 mi South 3.5 mph - N/A   Mostly Cloudy
9:16 PM 62.6 °F 50.0 °F 63% 29.84 in 2.0 mi SW 4.6 mph - N/A   Haze
9:24 PM 60.8 °F 50.0 °F 68% 29.83 in 1.8 mi SW 4.6 mph - N/A   Haze
9:41 PM 60.8 °F 48.2 °F 63% 29.84 in 2.0 mi Calm Calm - N/A   Haze
9:53 PM 57.9 °F 48.9 °F 72% 29.86 in 2.0 mi Calm Calm - N/A   Haze
10:38 PM 57.2 °F 50.0 °F 77% 29.85 in 3.0 mi Calm Calm - N/A   Haze
10:53 PM 57.9 °F 48.9 °F 72% 29.87 in 4.0 mi Calm Calm - N/A   Haze
11:53 PM 57.0 °F 50.0 °F 77% 29.86 in 5.0 mi Calm Calm - N/A   Haze